Location: Eschertshofen
(49.3064°N, 11.5756°E)
Time: 14:37:28
(UTC+00:00)

Cosmos 1892 Rocket - Pass Details

Date: 18 September 2020
Orbit: 606 x 633 km, 82.5° (Epoch: 27 October)

Event Time Altitude Azimuth Distance (km) Brightness Sun altitude
Rises 20:14:39 0° 348° (NNW) 2,879 7.7 -27.1°
Reaches altitude 10° 20:16:53 10° 347° (NNW) 1,969 6.8 -27.4°
Enters shadow 20:20:05 48° 337° (NNW) 798 4.3 -27.8°
